Location: Bijele Vode
(45.2833°N, 16.2000°E)
Time: 19:46:53
(UTC+00:00)

ATLAS 2AS CENTAUR R/B - Pass Details

Date: 18 September 2020
Orbit: 939 x 1273 km, 63.7° (Epoch: 27 October)

Event Time Altitude Azimuth Distance (km) Brightness Sun altitude
Rises 19:11:59 0° 189° (S) 4,170 5.6 -23.1°
Reaches altitude 10° 19:14:53 10° 183° (S) 3,231 5.0 -23.6°
Enters shadow 19:16:58 19° 175° (S) 2,611 4.4 -23.9°
Exits shadow 19:24:46 34° 75° (ENE) 1,986 3.7 -25.1°
Drops below altitude 10° 19:29:30 10° 48° (NE) 3,249 5.1 -25.8°
Sets 19:32:25 0° 42° (NE) 4,196 5.7 -26.2°
